| time (UTC) | temp C | wind direction | speed KPH | gust KPH | rain 1hr cm | rain 24hr cm | rain mn cm | humidity % | barometer mb |
| 20260504030111 | 20 | 292 | 0.0 | 1.6 | 0.00 | 0.00 | 0.00 | ||
| 20260504023051 | 21 | 252 | 0.0 | 4.8 | 0.00 | 0.00 | 0.00 | ||
| 20260504013041 | 22 | 279 | 1.6 | 4.8 | 0.00 | 0.00 | 0.00 | ||
| 20260504010051 | 23 | 60 | 1.6 | 6.4 | 0.00 | 0.00 | 0.00 | ||
| 20260504003053 | 24 | 202 | 0.0 | 6.4 | 0.00 | 0.00 | 0.00 | ||
| 20260503233045 | 26 | 287 | 1.6 | 9.7 | 0.00 | 0.00 | 0.00 | ||
| 20260503230111 | 28 | 304 | 1.6 | 6.4 | 0.00 | 0.00 | 0.00 | ||
| 20260503223051 | 29 | 295 | 1.6 | 6.4 | 0.00 | 0.00 | 0.00 | ||
| 20260503220101 | 28 | 233 | 4.8 | 9.7 | 0.00 | 0.00 | 0.00 | ||
| 20260503213042 | 29 | 298 | 0.0 | 8.0 | 0.00 | 0.00 | 0.00 | ||
| 20260503210052 | 28 | 107 | 4.8 | 9.7 | 0.00 | 0.00 | 0.00 | ||
| 20260503200101 | 27 | 61 | 4.8 | 9.7 | 0.00 | 0.00 | 0.00 | ||
| 20260503193044 | 26 | 294 | 3.2 | 8.0 | 0.00 | 0.00 | 0.00 | ||
| 20260503190054 | 25 | 114 | 4.8 | 12.9 | 0.00 | 0.00 | 0.00 | ||
| 20260503180106 | 23 | 83 | 4.8 | 9.7 | 0.00 | 0.00 | 0.00 | ||
| 20260503173046 | 21 | 112 | 4.8 | 12.9 | 0.00 | 0.00 | 0.00 | ||
| 20260503150111 | 16 | 72 | 3.2 | 6.4 | 0.00 | 0.00 | 0.00 | ||
| 20260503053033 | 12 | 222 | 0.0 | 0.0 | 0.00 | 0.00 | 0.00 | ||
| 20260503043043 | 12 | 241 | 0.0 | 4.8 | 0.00 | 0.00 | 0.00 | ||
| 20260503040054 | 12 | 257 | 1.6 | 6.4 | 0.00 | 0.00 | 0.00 | ||
| 20260503033033 | 12 | 237 | 0.0 | 8.0 | 0.00 | 0.00 | 0.00 |